Location: Mount Cross
(36.6390°N, 79.4878°W)
Time: 02:03:16
(UTC+00:00)

SR - Pass Details

Date: 05 April 2023
Orbit: 580 x 867 km, 66.7° (Epoch: 08 June)

Event Time Altitude Azimuth Distance (km) Brightness Sun altitude
Rises 14:10:38 0° 329° (NNW) 2,845 ? 37.0°
Reaches altitude 10° 14:12:50 10° 326° (NW) 1,964 ? 37.4°
Maximum altitude 14:17:11 64° 245° (WSW) 708 ? 38.2°
Drops below altitude 10° 14:21:51 10° 165° (SSE) 2,097 ? 39.1°
Sets 14:24:16 0° 162° (SSE) 3,057 ? 39.5°
